ETNN

Nörvenich Air Base

Airport
ICAO code
ETNN
Summary
ICAO Region
EUR
ICAO Territory
Location

Nörvenich, North Rhine-Westphalia

Serving
Nörvenich
Elevation
384 ft
Coordinates
50° 49' 54" N , 6° 39' 30" E
Metar
ETNN 231120Z 27007KT 9999 FEW050 20/09 Q1015 BLU+BLU+

Nörvenich Air Base (Fliegerhorst Nörvenich) is a German Air Force air base in Germany.

Runways

Designator Length Width Surface Rops
7/25 2439 45 ASP No/No

Airport map

Aerial View

SKYbrary Partners:

Safety knowledge contributed by: